Previsão horária em Abdi

Hoje, 17 Abril, Sábado

Tempo Temperatura Precipitação Vento Pressão Humidade
00:00 +4°C° 0 mm 4 m/s 755 mmHg 63%
01:00 +3°C° 0 mm 4 m/s 755 mmHg 65%
02:00 +3°C° 0 mm 4 m/s 755 mmHg 68%
03:00 +1°C° 0 mm 4 m/s 755 mmHg 70%
04:00 +1°C° 0 mm 4 m/s 755 mmHg 70%
05:00 +1°C° 0 mm 4 m/s 755 mmHg 70%
06:00 +1°C° 0 mm 4 m/s 756 mmHg 69%
07:00 +4°C° 0 mm 4 m/s 756 mmHg 63%
08:00 +5°C° 0 mm 5 m/s 756 mmHg 56%
09:00 +7°C° 0 mm 5 m/s 756 mmHg 49%
10:00 +8°C° 0 mm 5 m/s 756 mmHg 43%
11:00 +9°C° 0 mm 5 m/s 755 mmHg 38%
12:00 +10°C° 0 mm 5 m/s 755 mmHg 32%
13:00 +12°C° 0 mm 5 m/s 755 mmHg 32%
14:00 +12°C° 0 mm 4 m/s 755 mmHg 32%
15:00 +12°C° 0 mm 4 m/s 755 mmHg 32%
16:00 +11°C° 0 mm 4 m/s 754 mmHg 38%
17:00 +10°C° 0 mm 3 m/s 754 mmHg 44%
18:00 +9°C° 0 mm 3 m/s 754 mmHg 50%
19:00 +8°C° 0 mm 3 m/s 754 mmHg 55%
20:00 +7°C° 0 mm 3 m/s 754 mmHg 60%
21:00 +4°C° 0 mm 3 m/s 754 mmHg 65%
22:00 +4°C° 0 mm 3 m/s 754 mmHg 67%
23:00 +3°C° 0 mm 3 m/s 754 mmHg 70%

Amanhã, 18 Abril, Domingo

Tempo Temperatura Precipitação Vento Pressão Humidade
00:00 +3°C° 0 mm 3 m/s 754 mmHg 72%
01:00 +2°C° 0 mm 3 m/s 754 mmHg 74%
02:00 +2°C° 0 mm 3 m/s 754 mmHg 76%
03:00 +3°C° 0 mm 2 m/s 754 mmHg 77%
04:00 +3°C° 0 mm 2 m/s 754 mmHg 77%
05:00 +3°C° 0 mm 2 m/s 754 mmHg 77%
06:00 +3°C° 0 mm 2 m/s 754 mmHg 77%
07:00 +4°C° 0 mm 3 m/s 754 mmHg 69%
08:00 +7°C° 0 mm 3 m/s 754 mmHg 62%
09:00 +8°C° 0 mm 4 m/s 754 mmHg 55%
10:00 +10°C° 0 mm 4 m/s 754 mmHg 51%
11:00 +10°C° 0 mm 5 m/s 754 mmHg 47%
12:00 +12°C° 0 mm 5 m/s 754 mmHg 43%
13:00 +11°C° 0 mm 6 m/s 754 mmHg 44%
14:00 +11°C° 0 mm 6 m/s 754 mmHg 45%
15:00 +11°C° 0 mm 6 m/s 754 mmHg 46%
16:00 +9°C° 0 mm 6 m/s 754 mmHg 51%
17:00 +8°C° 0 mm 7 m/s 754 mmHg 56%
18:00 +5°C° 0 mm 7 m/s 755 mmHg 62%
19:00 +4°C° 0 mm 6 m/s 755 mmHg 56%
20:00 +3°C° 0 mm 6 m/s 755 mmHg 51%
21:00 +2°C° 0 mm 6 m/s 756 mmHg 46%
22:00 +2°C° 0 mm 6 m/s 756 mmHg 50%
23:00 +1°C° 0 mm 6 m/s 756 mmHg 54%

Depois de amanhã, 19 Abril, Segunda-feira

Tempo Temperatura Precipitação Vento Pressão Humidade
00:00 +1°C° 0 mm 6 m/s 756 mmHg 58%
01:00 -1°C° 0 mm 6 m/s 757 mmHg 58%
02:00 -1°C° 0 mm 6 m/s 757 mmHg 58%
03:00 -2°C° 0 mm 6 m/s 757 mmHg 58%
04:00 -2°C° 0 mm 6 m/s 757 mmHg 57%
05:00 -2°C° 0 mm 6 m/s 758 mmHg 57%
06:00 -3°C° 0 mm 7 m/s 758 mmHg 57%
07:00 -2°C° 0 mm 7 m/s 758 mmHg 52%
08:00 -1°C° 0 mm 8 m/s 758 mmHg 47%
09:00 0°C° 0 mm 8 m/s 759 mmHg 41%
10:00 +1°C° 0 mm 8 m/s 759 mmHg 39%
11:00 +2°C° 0 mm 8 m/s 758 mmHg 36%
12:00 +4°C° 0 mm 8 m/s 758 mmHg 33%
13:00 +4°C° 0 mm 8 m/s 758 mmHg 32%
14:00 +5°C° 0 mm 8 m/s 758 mmHg 31%
15:00 +5°C° 0 mm 8 m/s 758 mmHg 30%
16:00 +4°C° 0 mm 7 m/s 758 mmHg 32%
17:00 +4°C° 0 mm 7 m/s 758 mmHg 35%
18:00 +3°C° 0 mm 6 m/s 759 mmHg 38%
19:00 +2°C° 0 mm 6 m/s 759 mmHg 40%
20:00 +1°C° 0 mm 6 m/s 759 mmHg 42%
21:00 -1°C° 0 mm 6 m/s 759 mmHg 44%
22:00 -1°C° 0 mm 6 m/s 759 mmHg 46%
23:00 -1°C° 0 mm 5 m/s 759 mmHg 49%

20 Abril, Terça-feira

Tempo Temperatura Precipitação Vento Pressão Humidade
00:00 -2°C° 0 mm 5 m/s 759 mmHg 51%
01:00 -2°C° 0 mm 5 m/s 760 mmHg 53%
02:00 -2°C° 0 mm 5 m/s 760 mmHg 56%
03:00 -3°C° 0 mm 4 m/s 760 mmHg 58%
04:00 -2°C° 0 mm 4 m/s 760 mmHg 58%
05:00 -2°C° 0 mm 5 m/s 760 mmHg 57%
06:00 -1°C° 0 mm 5 m/s 760 mmHg 57%
07:00 0°C° 0 mm 5 m/s 760 mmHg 49%
08:00 +2°C° 0 mm 6 m/s 760 mmHg 42%
09:00 +3°C° 0 mm 7 m/s 760 mmHg 34%
10:00 +4°C° 0 mm 7 m/s 760 mmHg 33%
11:00 +5°C° 0 mm 7 m/s 760 mmHg 31%
12:00 +7°C° 0 mm 6 m/s 760 mmHg 29%
13:00 +7°C° 0 mm 6 m/s 760 mmHg 29%
14:00 +8°C° 0 mm 6 m/s 759 mmHg 28%
15:00 +8°C° 0 mm 6 m/s 759 mmHg 27%
16:00 +7°C° 0 mm 6 m/s 759 mmHg 31%
17:00 +7°C° 0 mm 5 m/s 758 mmHg 35%
18:00 +6°C° 0 mm 5 m/s 758 mmHg 39%
19:00 +5°C° 0 mm 5 m/s 758 mmHg 42%
20:00 +3°C° 0 mm 5 m/s 758 mmHg 45%
21:00 +2°C° 0 mm 5 m/s 758 mmHg 48%
22:00 +1°C° 0 mm 5 m/s 758 mmHg 50%
23:00 +1°C° 0 mm 5 m/s 758 mmHg 52%

21 Abril, Quarta-feira

Tempo Temperatura Precipitação Vento Pressão Humidade
00:00 0°C° 0 mm 5 m/s 758 mmHg 54%
01:00 0°C° 0 mm 5 m/s 758 mmHg 55%
02:00 0°C° 0 mm 5 m/s 757 mmHg 56%
03:00 -1°C° 0 mm 5 m/s 757 mmHg 57%
04:00 0°C° 0 mm 5 m/s 757 mmHg 55%
05:00 -1°C° 0 mm 6 m/s 757 mmHg 53%
06:00 -1°C° 0 mm 6 m/s 757 mmHg 51%
07:00 +2°C° 0 mm 7 m/s 756 mmHg 47%
08:00 +2°C° 0 mm 8 m/s 756 mmHg 43%
09:00 +5°C° 0 mm 8 m/s 756 mmHg 39%
10:00 +6°C° 0 mm 8 m/s 756 mmHg 37%
11:00 +7°C° 0 mm 8 m/s 756 mmHg 35%
12:00 +9°C° 0 mm 7 m/s 756 mmHg 33%
13:00 +9°C° 0 mm 7 m/s 755 mmHg 33%
14:00 +9°C° 0 mm 7 m/s 755 mmHg 33%
15:00 +10°C° 0 mm 6 m/s 755 mmHg 34%
16:00 +9°C° 0 mm 6 m/s 755 mmHg 37%
17:00 +9°C° 0 mm 5 m/s 755 mmHg 40%
18:00 +8°C° 0 mm 5 m/s 755 mmHg 42%
19:00 +8°C° 0 mm 5 m/s 755 mmHg 45%
20:00 +7°C° 0 mm 4 m/s 755 mmHg 47%
21:00 +7°C° 0 mm 4 m/s 755 mmHg 50%
22:00 +6°C° 0.1 mm 5 m/s 756 mmHg 58%
23:00 +6°C° 0.1 mm 5 m/s 756 mmHg 66%

22 Abril, Quinta-feira

Tempo Temperatura Precipitação Vento Pressão Humidade
00:00 +4°C° 0.1 mm 6 m/s 756 mmHg 74%
01:00 +4°C° 0.4 mm 6 m/s 756 mmHg 79%
02:00 +4°C° 0.4 mm 6 m/s 756 mmHg 83%
03:00 +4°C° 0.4 mm 6 m/s 756 mmHg 87%
04:00 +4°C° 0.2 mm 6 m/s 756 mmHg 88%
05:00 +4°C° 0.2 mm 6 m/s 756 mmHg 88%
06:00 +4°C° 0.2 mm 6 m/s 756 mmHg 89%
07:00 +4°C° 0.1 mm 6 m/s 756 mmHg 88%
08:00 +5°C° 0.1 mm 5 m/s 756 mmHg 87%
09:00 +5°C° 0.1 mm 5 m/s 756 mmHg 86%
10:00 +5°C° 0 mm 5 m/s 757 mmHg 87%
11:00 +5°C° 0 mm 5 m/s 757 mmHg 88%
12:00 +5°C° 0 mm 5 m/s 757 mmHg 88%
13:00 +5°C° 0 mm 5 m/s 757 mmHg 88%
14:00 +5°C° 0 mm 5 m/s 757 mmHg 87%
15:00 +5°C° 0 mm 5 m/s 757 mmHg 86%
16:00 +5°C° 0 mm 5 m/s 757 mmHg 85%
17:00 +5°C° 0 mm 5 m/s 757 mmHg 83%
18:00 +5°C° 0 mm 4 m/s 757 mmHg 82%
19:00 +4°C° 0 mm 4 m/s 757 mmHg 84%
20:00 +4°C° 0 mm 4 m/s 757 mmHg 86%
21:00 +4°C° 0 mm 3 m/s 757 mmHg 88%
22:00 +4°C° 0.3 mm 3 m/s 757 mmHg 90%
23:00 +3°C° 0.3 mm 4 m/s 757 mmHg 92%
Mostrar mais